www.pogodaiklimat.ru

Погода и климат >> Архив погоды >> Кувейт >> Аль-Салми


ПОГОДА на Аль-Салми

  • Прогноз погоды на Аль-Салми
  • Монитор погоды на Аль-Салми

АРХИВ ПОГОДЫ на Аль-Салми

Время (UTC), дата Ветер
(напр.,м/с)
 
Видим.   Явления Облачность Т
(С)
Тd
(С)
f
(%)
Тe
(С)
Тes
(С)
Комфортность P
(гПа)
Po
(гПа)
Тmin
(С)
Tmax
(С)
R
(мм)
R24
(мм)
S
(см)
09 16.07 СЗ 11-15
{17}
19 км н/о +41.7 +7.4 13 +39 +39 очень
жарко
998.1 967.5
12 16.07 СЗ 11-17
{17}
20 км н/о +43.7 +3.5 9 +41 +41 опасность
перегрева
997.0 966.6
15 16.07 СЗ 10-17
{17}
20 км н/о +41.4 +0.6 8 +38 +38 очень
жарко
997.0 966.4
18 16.07 СЗ 5-6
{17}
20 км н/о +35.3 +3.7 14 +32 +32 жарко 999.3 968.0
21 16.07 СЗ 4-5
{5}
20 км н/о +31.2 +6.5 21 +30 +30 жарко 999.5 967.8 +26.9 +44.5
00 17.07 СЗ 4-6
{8}
20 км н/о +29.3 +6.8 24 +28 +28 жарко 999.2 967.3
03 17.07 СЗ 4-5
{8}
20 км н/о +28.4 +7.2 26 +28 +28 жарко 1000.3 968.3
06 17.07 СЗ 9-12
{12}
19 км н/о +36.5 +9.4 19 +35 +35 очень
жарко
1000.6 969.4
09 17.07 СЗ 10-16
{16}
19 км н/о +39.3 +8.9 16 +37 +37 очень
жарко
1000.1 969.2
12 17.07 СЗ 10-16
{16}
19 км н/о +41.5 +6.6 12 +39 +39 очень
жарко
998.7 968.0
15 17.07 СЗ 8-11
{16}
20 км н/о +39.5 +3.5 11 +36 +36 очень
жарко
999.0 968.1
18 17.07 СЗ 3-3
{16}
20 км н/о +33.2 +3.6 16 +31 +31 жарко 1000.6 969.1
21 17.07 З 4-4
{4}
20 км н/о +30.5 +4.9 20 +29 +29 жарко 1000.8 969.0 +27.4 +42.0
00 18.07 З 3-4
{5}
20 км н/о +27.7 +4.9 23 +26 +26 жарко 1000.3 968.2
03 18.07 З 4-7
{7}
20 км н/о +27.6 +5.0 24 +27 +27 жарко 1000.7 968.6
06 18.07 СЗ 10-14
{14}
20 км н/о +36.8 +9.4 19 +35 +35 очень
жарко
1000.1 968.9
09 18.07 СЗ 13-20
{20}
15 км н/о +43.0 +8.9 13 +41 +41 опасность
перегрева
998.7 968.2
12 18.07 С 15-20
{23}
4300 м дым н/о +44.4 +5.2 9 +41 +41 опасность
перегрева
997.1 966.8
15 18.07 С 13-17
{21}
9000 м дым н/о +42.2 +4.7 10 +39 +39 очень
жарко
997.8 967.2
18 18.07 СЗ 7-11
{21}
17 км н/о +37.9 +6.0 14 +35 +35 очень
жарко
999.4 968.4
21 18.07 СЗ 7-10
{12}
16 км н/о +35.1 +7.2 18 +33 +33 жарко 999.2 967.9 +25.9 +45.2
00 19.07 СЗ 6-9
{12}
19 км н/о +32.3 +6.6 20 +30 +30 жарко 999.2 967.6
03 19.07 СЗ 7-9
{9}
18 км н/о +31.0 +7.3 23 +30 +30 жарко 1000.2 968.5
06 19.07 С 13-17
{17}
15 км н/о +38.2 +7.9 16 +36 +36 очень
жарко
999.9 968.9
09 19.07 СЗ 14-19
{19}
10 км н/о +42.4 +9.4 14 +41 +41 опасность
перегрева
999.0 968.4
12 19.07 СЗ 14-21
{23}
9000 м дым н/о +43.3 +7.1 11 +41 +41 опасность
перегрева
997.7 967.3
15 19.07 СЗ 11-15
{20}
19 км н/о +41.1 -0.1 8 +37 +37 очень
жарко
998.5 967.8
18 19.07 СЗ 6-8
{20}
20 км н/о +35.5 +0.6 11 +32 +32 жарко 1000.0 968.7
21 19.07 СЗ 4-5
{8}
19 км н/о +31.8 +5.7 19 +30 +30 жарко 1000.7 969.0 +30.4 +44.2
00 20.07 СЗ 5-7
{10}
20 км н/о +30.1 +7.7 25 +29 +29 жарко 1000.4 968.6
03 20.07 З 4-5
{7}
20 км н/о +27.8 +7.6 28 +27 +27 жарко 1002.4 970.3
06 20.07 СЗ 12-16
{16}
19 км н/о +36.0 +10.4 21 +35 +35 очень
жарко
1001.3 970.0
09 20.07 СЗ 10-14
{16}
20 км н/о +40.6 +8.7 15 +39 +39 очень
жарко
1000.6 969.8
12 20.07 СЗ 10-14
{17}
20 км н/о +43.1 +6.9 11 +40 +40 очень
жарко
999.0 968.5
15 20.07 СЗ 9-12
{15}
20 км н/о +41.0 +4.5 11 +38 +38 очень
жарко
999.3 968.6
18 20.07 СЗ 5-6
{15}
20 км н/о +34.8 +3.4 14 +32 +32 жарко 1001.0 969.6
21 20.07 З 5-6
{7}
20 км н/о +31.1 +2.3 16 +29 +29 жарко 1001.3 969.5 +27.4 +43.4
00 21.07 СЗ 2-3
{7}
20 км н/о +27.7 +3.3 21 +26 +26 жарко 1001.8 969.7
03 21.07 З 5-6
{6}
20 км н/о +28.2 +3.9 21 +27 +27 жарко 1002.0 969.9
06 21.07 СЗ 8-11
{12}
20 км н/о +39.0 +7.4 15 +37 +37 очень
жарко
1000.9 969.9
09 21.07 СЗ 8-12
{14}
20 км н/о +42.2 +5.0 10 +39 +39 очень
жарко
999.9 969.3
12 21.07 СЗ 8-12
{14}
20 км н/о +44.4 +5.9 10 +42 +42 опасность
перегрева
997.9 967.5
15 21.07 СЗ 7-10
{12}
20 км н/о +42.5 +4.1 10 +39 +39 очень
жарко
997.8 967.3
18 21.07 СЗ 3-4
{12}
20 км н/о +35.8 +5.3 15 +33 +33 жарко 999.5 968.3
21 21.07 СЗ 4-5
{5}
20 км н/о +32.8 +6.9 20 +31 +31 жарко 999.4 967.9 +26.8 +44.9
00 22.07 З 3-4
{5}
20 км н/о +30.2 +6.2 22 +29 +29 жарко 1000.1 968.3
03 22.07 С 3-4
{5}
20 км н/о +30.3 +7.5 24 +29 +29 жарко 1000.4 968.6
06 22.07 СЗ 7-9
{9}
19 км н/о +39.9 +10.9 18 +39 +39 очень
жарко
999.7 968.9
09 22.07 СЗ 8-13
{15}
19 км н/о +43.7 +8.9 13 +42 +42 опасность
перегрева
998.3 967.9
12 22.07 С 10-15
{16}
19 км н/о +45.7 +5.5 9 +43 +43 опасность
перегрева
996.4 966.2
15 22.07 С 9-12
{16}
20 км н/о +43.4 +1.2 8 +40 +40 очень
жарко
996.5 966.1
18 22.07 СЗ 4-4
{16}
20 км н/о +36.0 +1.1 11 +32 +32 жарко 998.1 966.9
21 22.07 СЗ 4-5
{6}
20 км н/о +32.7 +3.7 16 +30 +30 жарко 998.1 966.6 +28.1 +45.8
00 23.07 СЗ 4-5
{7}
20 км н/о +30.9 +4.7 19 +29 +29 жарко 997.6 965.9
03 23.07 СЗ 4-5
{6}
20 км н/о +29.5 +5.4 22 +28 +28 жарко 998.8 966.9
06 23.07 СЗ 8-10
{10}
20 км н/о +38.9 +9.6 17 +37 +37 очень
жарко
998.3 967.4

 

Местоположение метеостанции Аль-Салми (Кувейт): широта 29.10 долгота 46.68 высота над уровнем моря 287 м.

В архиве по умолчанию представлена погода на Аль-Салми за последнюю неделю. Архивные данные за месяц целиком и за предыдущие месяцы, начиная с января 2011 года, Вы можете получить, выбрав интересующий диапазон дат из раскрывающегося списка и нажав кнопку "Ввод!".


*Определитесь, кто Вы:
робот инопланетянин человек

Внимание! Время в таблицах - всемирное. Для получения местного времени необходимо прибавить поправку, которая равна 3 ч.

Смотрите также архив погоды в соседних городах и на ближайших метеорологических станциях:

Погода на Абраке Аль Хабари (Кувейт) (38 км)
Погода в Минагише (Кувейт) (83 км)
Погода в Эль-Джахра (Кувейт) (99 км)
Погода в Аль-Кайсумахе (Саудовская Аравия) (102 км)
Погода в Сулайбии (Кувейт) (103 км)
Погода на Метеостанции Jal Aliyah (Кувейт) (104 км)
Погода на Метеостанции Mintribah (Кувейт) (104 км)
Погода на Экспериментальной ферме (Кувейт) (124 км)
Погода в Эль-Кувейте (Кувейт) (126 км)
Погода на Метеостанции Sabriyah (Кувейт) (134 км)

Пояснения к столбцам:

Ветер - указаны скорость ветра в м/с - средняя за 10 мин, порывы в срок и между сроками (в фигурных скобках) и направление, откуда дует ветер: С - северный, СВ - северо-восточный, В - восточный, ЮВ - юго-восточный, Ю - южный, ЮЗ - юго-западный, З - западный, СЗ - северо-западный.
Видимость - горизонтальная дальность видимости в метрах или километрах. При видимости от 1 до 10 км при отсутствии осадков обычно наблюдается дымка, при ухудшении видимости до 1 км и менее - туман. В сухую погоду видимость может ухудшаться дымом, пылью или мглою.
Явления - указаны атмосферные явления, наблюдавшиеся в срок или в последний час перед сроком; фигурными скобками обозначены явления, наблюдавшиеся между сроками (за 1-3 часа до срока); квадратными скобками обозначены град или гололедные отложения с указанием их диаметра в мм.
Облачность - указаны через наклонную черту общая и нижняя облачность в баллах и высота нижней границы облаков в метрах; квадратными скобками обозначены формы облаков: Ci - перистые, Cs - перисто-слоистые, Cc - перисто-кучевые, Ac - высококучевые, As - высокослоистые, Sc - слоисто-кучевые, Ns - слоисто-дождевые, Cu - кучевые, Cb - кучево-дождевые. Подробнее классификацию облаков см. в Атласе облаков (PDF).
T - Температура воздуха - температура, измеренная на высоте 2 м над землей.
Td - Температура точки росы - температура, при понижении до которой содержащийся в воздухе водяной пар достигнет насыщения.
f - Относительная влажность воздуха - влажноcть воздуха, измеренная на высоте 2 м над землей.
Te - Эффективная температура - температура, которую ощущает одетый по сезону человек в тени. Характеристика душности погоды. При расчете учитывается влияние влажности воздуха и скорости ветра на теплоощущения человека.
Tes - Эффективная температура на солнце - температура, которую ощущает человек, с поправкой на солнечный нагрев. Характеристика знойности погоды. Зависит от высоты солнца над горизонтом, облачности и скорости ветра. Ночью, в пасмурную погоду, а также при ветре 12 м/с и более поправка равна нулю.
P - Атмосферное давление - приведенное к уровню моря атмосферное давление.
Po - Атмосферное давление - измеренное на уровне метеостанции атмосферное давление.
Tmin - Минимальная температура - минимум температуры воздуха на высоте 2 м над землей.
Tmax - Максимальная температура - максимум температуры воздуха на высоте 2 м над землей.
R - Количество осадков - Количество выпавших осадков за период времени, мм. При наведении курсора мыши на число - период времени, за который выпало указанное количество осадков.
R24 - Количество осадков - Количество выпавших осадков за 24 часа, мм.
S - Снежный покров - Высота снежного покрова, см. При наведении курсора мыши на число - состояние снежного покрова и степень покрытия местности в баллах.